Temp
9 9 9 9 9 9 9 9 9 10 10 10 10 10 13 15 15 15 15 15 15 15 16 16 16 16 16 15 16 17 16 15 15 15 14 14 13 13 12 12 12 13 14 14 14 14 14
9 9 9 9 9 9 9 9 9 10 10 10 10 12 14 14 14 14 14 15 15 15 15 16 16 15 15 16 17 17 16 15 15 15 14 14 13 13 12 12 12 13 13 13 14 14 14
9 9 9 9 9 9 9 9 10 11 11 12 12 14 14 14 14 14 14 14 15 15 15 15 15 15 14 15 17 16 16 16 15 15 14 14 14 13 13 12 13 13 12 13 13 14 14
8 9 9 9 8 9 9 9 10 11 13 14 14 14 14 14 14 14 14 14 15 15 15 15 15 14 13 17 17 16 16 16 16 15 14 15 14 13 13 13 12 12 12 11 14 15 15
8 8 8 8 9 9 9 9 10 11 13 14 14 14 14 15 15 15 15 15 15 15 15 15 14 14 14 17 16 17 16 16 16 15 15 15 14 13 12 11 10 11 10 12 13 15 15
8 8 8 8 9 8 8 9 11 12 13 14 14 14 15 15 15 15 15 15 15 15 14 14 14 14 16 17 17 17 16 16 15 14 14 14 12 11 10 10 11 12 11 12 12 14 14
8 8 8 8 8 8 8 8 9 12 13 14 14 15 15 15 15 15 16 15 14 14 14 16 16 16 17 17 17 16 16 16 15 14 14 13 12 11 13 12 13 13 12 12 14 15 13
8 8 8 8 8 8 8 9 10 11 12 14 14 15 15 15 16 15 15 12 12 12 13 14 14 15 17 16 15 16 16 15 14 13 13 13 11 14 14 14 14 13 12 12 14 15 13
8 9 9 9 9 9 10 10 10 11 12 13 14 15 15 15 16 15 14 13 13 12 12 15 16 16 16 16 15 16 15 15 14 13 14 13 14 15 15 14 14 14 13 13 14 14 13
9 9 9 9 10 10 10 10 10 11 11 12 14 15 15 16 15 14 13 13 13 12 10 17 16 17 16 15 15 16 16 16 15 14 14 13 14 16 15 15 15 13 15 14 14 13 10
10 10 10 10 10 10 10 10 10 10 11 12 14 14 15 14 14 13 13 13 13 13 13 17 17 16 16 16 16 16 15 14 14 15 14 14 15 15 15 16 15 14 14 13 13 12 11
10 10 10 10 10 10 10 10 10 10 10 11 13 14 14 14 14 13 13 13 13 11 14 18 17 17 16 15 16 16 15 14 14 14 13 12 14 15 15 15 14 14 14 13 12 11 10
8 9 9 9 9 10 10 10 10 10 10 10 12 14 14 13 13 13 13 13 12 12 17 18 17 17 16 16 16 16 16 14 14 12 12 12 15 16 16 14 15 13 11 9 11 10 12
7 7 7 7 8 9 9 10 10 10 10 10 12 14 13 12 12 13 13 12 15 16 16 17 16 16 16 16 16 16 15 14 15 13 10 9 12 16 16 16 15 13 13 9 13 10 11
6 6 6 6 6 6 6 7 9 10 10 10 11 13 12 12 12 12 11 10 13 15 18 17 17 16 17 16 15 15 15 13 14 14 14 11 13 15 15 16 15 15 13 14 12 11 7
5 5 5 5 5 5 5 5 7 8 10 10 10 10 11 12 12 12 11 12 14 16 16 16 17 16 16 16 16 15 15 15 15 14 13 14 11 14 15 15 15 15 14 12 11 12 13
5 4 4 4 4 4 5 5 5 7 9 10 9 8 11 11 12 9 9 11 15 16 16 16 16 16 15 16 15 15 15 15 14 13 13 13 12 13 14 15 15 14 14 14 12 11 11
4 4 4 4 4 4 4 4 4 4 7 9 8 9 10 11 10 8 10 12 16 15 14 15 14 14 14 15 14 13 14 15 13 12 13 12 10 9 13 14 14 15 15 13 11 13 11
4 4 4 4 4 4 4 4 4 4 5 6 6 6 10 10 9 8 10 13 15 14 14 13 13 13 14 14 15 13 14 14 12 12 11 11 11 9 13 14 15 14 15 15 13 11 11
4 4 4 4 4 4 4 3 3 4 5 7 7 6 7 6 6 10 11 12 13 13 14 12 14 13 13 13 13 14 14 13 12 12 13 12 10 11 11 13 13 12 13 13 12 9 11
4 4 4 4 4 4 3 3 3 3 5 6 7 8 8 7 8 8 10 11 12 13 12 13 13 12 12 11 12 11 12 12 11 12 11 10 10 8 9 10 11 11 11 11 10 11 12
3 3 3 3 3 3 3 3 3 3 5 6 7 7 7 8 8 9 9 9 11 11 13 12 11 13 11 12 13 14 12 11 11 9 9 8 10 10 10 11 10 10 11 10 10 11 11
3 3 3 3 3 3 3 3 3 3 4 4 5 5 5 8 9 9 10 9 10 10 11 12 12 11 11 11 13 14 11 12 12 9 8 8 8 8 9 9 9 12 12 12 13 12 12
3 3 3 3 3 3 3 3 3 3 3 4 4 4 5 6 6 8 9 9 9 9 10 11 11 10 12 11 12 12 10 10 9 9 9 8 8 8 7 10 9 14 13 13 12 12 11
3 3 3 3 3 3 3 3 3 3 3 3 3 3 4 4 6 6 7 7 8 8 7 8 10 11 11 11 10 11 10 10 9 9 8 8 8 8 8 8 10 15 12 11 12 13 11
3 3 3 3 3 3 3 3 3 3 3 3 3 3 3 4 4 4 4 5 5 5 6 8 9 10 9 10 11 11 11 11 10 8 7 7 8 9 6 9 10 12 13 12 12 11 10
3 3 3 3 3 3 3 3 3 3 3 3 3 3 2 2 4 4 3 3 5 5 5 7 8 8 8 10 10 10 11 11 11 8 6 7 6 9 9 8 8 10 11 11 12 12 9
2 2 3 3 3 3 3 3 3 3 3 3 3 3 2 2 2 3 3 2 3 4 4 6 6 7 7 9 10 10 9 12 11 11 8 8 7 8 8 6 8 9 10 11 11 9 9
2 2 2 2 2 2 3 3 3 3 3 2 2 3 2 2 2 3 3 3 4 4 3 4 5 6 7 7 7 7 10 7 12 11 7 9 11 8 8 9 10 10 12 10 8 9 8
Height
871 871 869 867 865 864 861 859 856 854 852 848 845 842 840 839 838 836 835 834 833 833 832 831 829 827 825 826 826 822 822 821 820 818 817 815 815 815 818 817 814 811 805 799 795 792 789
873 871 870 868 867 864 863 860 857 854 851 849 844 841 840 839 837 835 833 832 831 831 831 831 829 827 827 830 821 820 820 819 818 817 817 817 817 816 817 816 817 808 805 798 792 787 786
874 873 871 870 867 865 863 861 858 855 852 848 845 841 840 838 836 834 831 830 829 829 829 829 829 828 828 826 820 819 819 818 816 816 816 816 817 817 816 816 810 807 809 799 789 783 782
875 874 872 870 868 866 864 861 858 855 852 848 845 842 840 837 835 833 831 829 828 828 828 827 827 828 826 820 820 818 818 816 815 814 814 814 815 816 815 812 810 810 809 810 787 782 777
876 875 872 871 869 866 864 862 859 856 852 849 845 842 840 837 835 832 830 828 827 826 827 827 828 828 826 820 819 817 816 815 814 813 811 813 814 816 815 819 825 817 820 809 795 777 778
877 876 873 871 869 868 865 863 859 856 853 850 845 842 839 837 834 832 830 827 827 827 826 826 827 832 822 819 816 815 815 814 814 812 811 813 817 820 822 826 827 815 814 805 801 782 779
878 877 874 872 871 868 866 863 860 856 853 850 846 842 839 836 834 831 829 828 829 830 827 822 821 820 817 816 814 814 814 814 814 814 817 815 821 822 812 812 806 806 807 803 785 775 780
879 878 875 873 871 869 866 863 860 856 853 849 846 843 839 836 834 832 830 832 835 836 832 820 820 819 816 815 817 812 814 817 816 820 816 820 822 802 802 801 802 801 803 796 781 772 778
880 878 876 874 872 869 867 864 860 857 853 850 847 843 839 836 834 833 833 834 835 835 836 821 816 816 816 816 816 813 813 814 817 819 814 819 803 798 798 798 797 794 795 790 785 778 771
881 879 877 874 873 870 867 865 861 857 854 850 847 844 840 836 837 835 835 835 834 834 849 823 819 815 815 815 817 811 811 814 814 816 812 814 800 795 796 798 793 798 780 782 783 787 801
881 880 878 875 873 870 868 865 862 858 854 850 847 843 840 837 837 836 837 835 835 836 865 820 817 814 814 818 814 811 811 814 816 812 816 809 799 798 799 790 789 790 781 783 781 786 791
879 878 877 875 873 870 868 865 861 858 854 850 846 843 840 838 837 837 836 835 836 854 855 819 816 815 818 817 813 809 811 812 811 813 812 809 799 796 793 788 788 784 779 780 783 791 808
879 877 876 874 871 868 866 863 860 857 854 849 845 842 839 837 837 836 835 836 853 864 822 818 816 815 819 819 815 813 811 816 820 831 823 813 797 790 789 794 786 791 796 821 811 812 796
879 877 875 872 869 866 864 861 858 856 852 848 843 840 837 837 836 836 836 844 850 828 822 813 816 817 820 815 814 813 815 821 814 820 839 845 820 792 790 792 795 798 800 832 808 822 810
880 878 875 873 870 866 862 859 856 853 851 847 841 836 835 835 835 836 840 863 841 826 811 815 817 820 817 814 817 816 816 820 816 815 822 836 817 794 791 789 793 792 803 797 804 807 837
880 878 876 873 869 865 861 857 854 851 849 846 841 837 834 834 834 835 844 841 825 812 812 814 818 817 820 815 817 817 816 809 812 812 814 818 831 799 792 790 791 792 795 805 813 808 798
880 878 875 873 869 866 862 858 853 850 846 843 841 839 833 833 834 840 851 839 819 811 811 817 818 817 819 813 817 818 813 807 808 813 814 816 824 809 798 795 794 798 797 797 803 814 816
881 878 875 872 869 866 862 858 854 850 845 842 842 845 833 832 839 842 837 824 812 813 814 814 816 815 816 814 816 820 815 806 806 811 816 817 828 835 802 792 792 790 791 798 812 801 809
882 879 876 873 870 867 863 859 855 853 850 847 846 842 833 832 840 840 827 818 812 814 815 815 815 815 810 814 816 814 807 802 806 809 814 816 826 841 805 797 790 792 790 789 798 805 804
882 880 877 874 871 867 864 860 856 854 850 848 846 848 837 835 837 830 826 821 817 810 809 810 808 809 812 812 812 808 806 803 805 807 808 809 823 818 819 802 802 804 795 793 798 818 798
882 880 878 874 872 868 864 861 855 852 848 848 845 841 837 841 835 834 829 823 818 814 812 810 808 808 810 817 812 812 806 804 807 805 811 815 822 826 813 808 806 801 798 796 804 796 791
881 879 877 875 872 868 864 861 857 853 846 846 845 843 839 836 834 830 830 827 818 817 813 812 814 805 811 810 803 799 800 803 801 812 814 817 815 814 812 799 802 801 789 789 789 784 785
879 878 876 873 873 869 865 863 860 855 851 849 851 849 847 835 830 828 823 823 818 819 811 805 808 811 809 805 796 788 791 790 789 800 811 815 818 822 812 808 804 787 774 773 770 771 769
878 876 874 872 871 869 866 863 862 860 857 855 854 853 849 837 837 831 826 825 822 820 813 809 805 809 803 797 793 789 789 790 793 793 795 810 815 819 820 805 813 762 761 762 766 763 764
874 873 871 870 869 867 866 864 861 860 858 855 854 853 850 842 834 832 831 829 824 820 819 814 806 800 796 797 799 794 793 789 789 791 795 795 804 811 811 813 784 755 762 764 763 758 760
871 869 868 866 866 865 864 862 860 858 856 855 852 851 851 844 832 836 836 833 830 825 818 806 799 797 797 795 792 783 782 784 787 792 794 797 796 796 818 803 781 753 750 752 754 767 755
867 866 864 862 861 861 860 858 856 855 854 854 851 850 849 845 833 831 833 834 827 824 820 813 804 795 789 786 780 778 775 776 775 790 803 801 804 787 789 799 779 753 751 752 761 754 751
863 861 860 858 856 855 855 853 852 851 850 849 847 846 846 839 828 827 825 831 832 831 827 813 813 794 791 784 778 772 773 758 764 758 778 782 794 788 796 805 781 743 752 751 741 744 747
859 857 855 853 851 849 848 847 847 846 844 843 842 840 839 835 821 819 819 822 817 817 821 814 805 798 793 784 777 772 759 766 744 746 764 763 748 767 768 757 735 733 726 729 733 738 745
Wind_Speed
12 11 12 12 13 13 14 14 15 16 16 16 16 12 9 7 7 7 8 8 8 9 8 9 10 10 3 3 3 6 5 5 6 8 8 4 5 2 2 4 6 3 4 7 8 11 9
11 11 11 12 12 13 14 15 16 17 18 19 17 11 9 8 9 10 9 8 7 7 7 8 9 7 2 1 3 4 4 3 4 6 5 5 3 2 3 3 2 4 8 12 9 13 7
10 10 11 11 11 13 14 15 16 17 19 22 19 11 11 11 10 10 9 8 6 5 5 5 6 4 1 6 3 5 5 5 7 4 2 3 3 3 2 4 3 6 7 8 6 5 5
9 9 11 11 12 13 14 15 16 17 19 23 20 14 15 12 11 10 9 7 6 4 3 3 4 1 4 4 8 9 6 7 6 8 7 5 3 2 2 4 7 4 2 5 5 5 6
9 10 11 11 12 13 13 14 16 17 19 21 20 15 15 14 12 11 9 6 4 3 3 3 1 1 6 4 5 6 6 5 8 4 5 8 1 2 4 3 4 3 5 5 8 4 3
9 10 11 12 13 13 14 15 15 17 18 19 20 16 15 15 12 12 11 7 3 3 1 1 2 2 4 2 3 5 5 6 3 6 3 2 1 2 2 3 4 7 6 5 8 5 4
10 11 12 13 13 14 15 16 17 16 17 18 19 17 15 15 11 11 12 2 3 2 1 5 2 3 2 6 4 3 1 2 2 1 2 2 1 6 10 9 8 6 5 11 16 14 5
10 10 12 13 14 15 16 17 18 19 19 18 18 19 16 14 7 10 6 4 2 1 6 5 8 6 5 0 3 2 1 2 1 4 4 4 7 9 7 7 7 8 8 11 10 4 4
12 12 14 15 16 17 18 19 20 20 21 20 19 19 17 15 3 5 8 4 3 3 2 5 3 3 2 2 3 3 5 1 4 3 4 4 8 6 4 7 6 4 5 5 6 8 3
13 14 15 16 17 18 19 20 20 21 22 22 20 20 18 13 1 5 3 5 2 2 4 3 2 2 2 2 3 3 4 1 2 4 5 6 5 3 4 6 1 6 3 6 10 4 3
13 14 15 15 17 18 19 20 21 22 23 23 21 19 16 9 6 2 4 4 3 1 3 2 2 1 0 2 3 2 1 2 4 5 4 7 4 4 5 5 2 10 8 9 4 3 3
10 12 14 14 15 16 18 20 21 23 24 25 22 20 15 6 5 3 5 3 0 5 5 1 1 1 3 1 3 1 1 0 3 3 3 8 5 3 4 6 3 9 5 4 3 2 2
10 10 12 13 15 13 15 17 20 23 25 26 25 20 12 6 2 5 3 1 4 4 2 3 4 1 1 3 3 3 2 4 2 6 6 6 3 3 1 6 4 8 6 4 6 5 4
16 15 16 16 16 16 15 14 16 19 23 26 27 19 9 7 6 3 0 4 2 4 5 2 2 1 3 1 3 2 2 2 1 3 2 3 8 2 1 2 3 4 2 4 3 2 5
14 14 16 17 18 18 16 16 16 16 19 23 26 13 6 2 3 2 4 2 7 6 2 3 1 1 2 1 1 2 3 3 5 4 1 3 6 4 2 1 3 4 3 2 2 1 2
12 13 14 16 19 20 19 20 18 17 15 18 19 9 5 2 3 2 3 6 5 3 4 1 4 5 4 3 1 1 2 3 4 4 3 2 5 3 4 2 2 2 2 2 3 3 4
13 14 15 17 18 19 20 21 21 19 16 14 7 3 1 3 4 4 3 7 5 2 2 4 4 3 6 3 5 3 4 3 4 4 3 3 3 6 3 1 2 3 2 1 2 4 2
14 15 15 16 16 19 19 21 22 23 18 8 4 2 1 5 2 2 3 5 2 3 1 4 2 6 6 6 5 5 7 6 7 6 5 4 4 5 7 4 4 2 2 3 3 4 2
14 15 15 15 16 15 18 21 22 22 18 10 2 3 1 2 3 3 5 4 3 5 5 5 5 6 3 5 3 6 5 1 6 7 7 6 2 4 9 4 1 3 3 2 1 2 5
13 14 16 13 14 16 19 20 19 20 18 8 2 3 3 3 1 2 2 5 5 4 5 5 4 4 3 4 4 4 4 4 6 4 6 4 4 7 6 6 1 6 3 2 2 1 4
13 14 14 15 15 16 19 21 21 19 18 3 2 4 3 3 3 3 2 3 4 4 2 2 2 7 7 6 3 7 6 2 2 5 5 4 6 5 7 11 8 12 14 9 9 9 7
10 12 13 16 14 14 17 20 22 21 18 1 2 3 5 3 4 4 3 3 3 7 4 5 5 6 7 7 9 6 5 5 7 3 7 4 3 4 5 4 4 8 12 11 11 9 11
8 9 11 12 13 13 14 17 19 21 16 5 5 4 1 4 4 4 7 5 5 8 8 11 4 5 4 11 15 17 7 4 6 11 9 7 5 3 5 3 8 8 6 6 4 6 5
11 11 10 11 12 14 13 14 14 15 15 8 4 3 2 7 5 6 9 14 13 13 17 15 17 8 6 6 6 2 5 7 7 7 6 7 6 4 3 3 2 6 3 6 7 6 7
14 11 11 10 11 13 11 11 10 10 11 12 7 4 2 6 8 12 15 14 17 17 17 17 16 12 8 3 5 6 3 3 6 6 8 5 6 3 3 4 6 6 4 6 6 6 8
15 15 13 12 12 12 13 13 11 10 9 10 11 4 3 5 5 5 5 9 11 12 15 19 18 23 4 6 7 18 10 4 5 2 4 3 1 4 3 5 8 6 4 6 5 5 8
15 16 16 17 15 14 15 16 13 10 9 8 10 10 4 5 10 14 7 7 4 5 8 10 9 6 6 8 14 14 14 6 11 7 5 3 2 14 11 5 7 9 5 5 5 6 7
17 17 18 18 19 18 15 15 13 11 13 11 12 12 10 6 11 20 25 12 12 11 13 11 11 5 3 6 5 7 7 12 11 11 10 11 9 5 4 5 10 9 5 9 5 2 6
19 20 21 20 19 20 20 17 16 16 16 16 16 18 17 13 11 33 37 34 37 33 13 10 14 15 5 3 2 3 6 3 15 17 4 7 11 7 12 9 5 11 3 6 6 7 7
Wind_Direction
54 47 42 34 30 25 21 15 15 11 7 4 358 351 348 342 326 316 311 298 286 287 304 324 342 347 17 23 253 303 327 346 357 356 12 2 30 38 360 303 326 230 267 275 275 291 282
51 44 39 33 29 21 17 15 12 9 7 2 0 360 5 350 333 322 314 303 290 282 291 315 333 349 39 335 280 300 321 337 335 354 358 11 349 281 280 275 317 296 292 284 281 278 268
45 43 34 29 23 20 14 11 9 9 9 8 4 7 0 350 341 329 320 308 293 274 272 306 326 347 44 235 268 299 295 298 304 278 307 327 321 11 334 294 279 277 301 314 266 255 257
38 33 32 23 22 16 12 7 8 9 12 12 10 8 357 353 347 342 334 318 295 269 259 284 311 330 249 279 276 277 272 294 294 250 245 282 289 262 231 293 333 341 306 331 273 286 269
31 28 26 23 18 16 9 5 6 7 11 11 11 7 360 355 349 343 334 318 295 259 266 292 324 68 277 286 266 284 261 272 296 280 258 255 222 257 343 359 343 342 269 276 307 231 268
29 24 21 18 15 10 8 4 9 7 8 7 8 4 1 356 350 343 336 308 287 285 189 183 224 24 267 288 270 272 269 264 296 320 27 128 86 332 356 74 299 286 295 273 262 286 224
18 17 16 12 10 7 5 4 1 3 3 3 4 360 356 355 352 349 349 334 19 356 206 213 210 248 269 299 290 237 274 276 302 11 319 224 18 253 258 220 236 264 257 266 278 287 242
22 21 17 15 11 7 5 4 2 0 358 358 358 357 352 350 355 4 8 58 49 291 313 251 254 273 283 42 317 273 206 327 311 286 313 2 242 260 250 264 259 267 264 276 283 254 198
19 23 25 20 15 11 8 6 3 1 357 354 352 353 347 346 351 24 50 62 12 342 266 299 221 231 232 163 255 268 153 180 246 286 256 213 256 313 276 306 318 268 226 264 258 324 278
18 16 16 14 9 6 3 1 2 0 358 354 351 349 348 354 52 355 56 3 6 13 50 264 263 262 164 152 272 238 206 186 295 276 302 241 280 299 297 291 218 306 222 268 304 18 286
357 357 353 357 355 357 357 356 355 355 355 353 350 346 348 357 333 50 332 341 335 90 44 235 226 170 86 225 301 235 157 67 233 255 60 263 285 312 308 236 114 252 304 283 287 182 33
347 337 333 338 337 337 337 340 346 349 349 348 347 341 336 319 311 326 329 333 7 44 261 325 202 256 330 199 265 161 211 32 238 278 201 251 297 267 249 296 212 292 326 22 53 78 33
356 348 338 335 330 329 327 328 332 335 338 342 342 338 323 304 290 314 328 63 31 133 286 217 228 168 127 273 291 195 270 328 349 13 358 322 272 260 245 323 343 14 19 352 359 4 233
20 15 6 348 340 334 328 330 325 322 330 334 336 333 315 284 280 299 82 50 150 238 225 27 156 261 208 184 247 287 290 303 235 88 360 40 331 279 159 193 283 331 97 132 286 309 291
11 8 5 5 6 6 354 337 327 326 326 331 332 331 303 248 257 234 79 77 216 210 195 175 153 253 262 229 204 345 223 219 200 172 153 6 277 312 237 260 127 319 31 186 215 256 21
9 5 3 4 9 4 360 355 348 327 326 330 330 321 279 211 178 138 86 235 246 226 128 104 216 184 240 220 207 191 235 209 191 184 134 180 298 262 300 342 240 213 266 27 14 341 313
16 12 9 7 8 8 8 5 356 345 331 332 324 348 177 164 145 57 190 231 271 261 157 174 225 238 227 243 201 223 245 248 176 177 143 158 135 288 331 196 280 335 336 339 140 147 211
8 2 2 5 6 2 360 1 359 0 353 2 350 305 169 161 97 199 210 209 279 209 76 249 223 225 208 204 212 234 229 216 167 150 176 201 160 273 252 261 271 230 254 128 124 272 236
6 4 359 2 3 5 9 7 4 0 6 334 312 268 298 183 198 235 277 271 241 182 215 198 234 218 170 220 232 205 225 155 158 159 170 180 225 328 336 353 315 264 194 219 110 50 215
5 3 11 9 5 1 1 355 352 353 355 345 281 325 317 40 321 174 302 262 256 226 230 192 201 164 179 221 231 266 247 213 188 192 149 136 180 194 207 225 194 291 244 225 139 232 243
356 2 359 359 1 359 0 2 360 350 349 318 244 247 199 284 302 246 277 286 309 300 225 238 249 221 181 207 222 226 225 188 195 192 159 158 221 190 256 265 264 262 271 258 216 219 229
344 344 349 355 356 2 5 3 4 357 358 172 316 349 353 297 284 259 189 247 249 276 237 241 232 255 205 210 210 245 195 187 202 188 170 177 243 189 286 252 245 277 260 249 244 246 243
314 331 339 345 347 351 355 5 6 7 13 18 359 354 341 279 278 300 262 242 265 329 274 257 252 309 264 232 239 247 215 230 197 165 186 165 167 143 252 340 318 293 223 199 246 207 196
313 299 313 330 328 333 344 357 2 7 13 0 339 301 290 267 266 268 301 303 301 305 290 279 293 262 246 307 286 267 239 240 179 205 162 158 157 164 251 352 217 237 210 201 220 246 223
299 301 297 303 313 313 325 329 341 359 349 354 350 339 286 277 289 277 280 286 294 294 293 294 294 256 270 229 260 273 297 305 227 222 210 186 151 195 205 199 297 297 199 177 175 275 205
309 308 298 292 293 299 303 308 314 323 343 333 322 334 286 307 246 0 311 287 279 281 289 276 276 270 197 247 228 242 239 214 231 232 2 118 83 161 149 217 223 235 173 142 119 283 191
309 306 305 299 288 288 290 291 299 305 295 302 293 302 255 273 267 261 284 293 292 310 296 308 312 316 186 235 240 240 246 195 232 207 176 155 184 210 218 246 278 243 172 152 119 232 166
307 307 303 299 296 284 282 291 288 292 286 273 277 284 264 264 269 259 269 271 284 282 280 283 320 227 260 225 241 234 247 230 229 238 191 183 172 194 179 212 269 181 98 170 199 99 150
302 302 303 302 298 292 283 279 281 284 284 279 268 287 292 252 268 282 269 265 252 241 255 243 242 269 327 300 235 270 232 215 228 243 138 218 201 188 190 209 236 195 171 197 153 152 168